Time,TemperatureF,DewpointF,PressureIn,WindDirection,WindDirectionDegrees,WindSpeedMPH,WindSpeedGustMPH,Humidity,HourlyPrecipIn,Conditions,Clouds,dailyrainin,SoftwareType,DateUTC
2013-06-29 00:01:00,75.0,61.0,29.83,NNW,330,3.0,6.0,63,-99.99,,,-99.99,,2013-06-29 05:01:00,
2013-06-29 00:11:00,74.0,61.0,29.82,NNW,330,2.0,6.0,64,-99.99,,,-99.99,,2013-06-29 05:11:00,
2013-06-29 00:31:00,74.0,61.0,29.82,NW,325,3.0,7.0,65,-99.99,,,-99.99,,2013-06-29 05:31:00,
2013-06-29 00:41:00,73.0,61.0,29.82,NW,325,3.0,5.0,66,-99.99,,,-99.99,,2013-06-29 05:41:00,
2013-06-29 01:01:00,73.0,61.0,29.82,WNW,300,4.0,5.0,67,-99.99,,,-99.99,,2013-06-29 06:01:00,
2013-06-29 01:12:00,73.0,61.0,29.81,NNW,330,4.0,6.0,67,-99.99,,,-99.99,,2013-06-29 06:12:00,
2013-06-29 01:22:00,73.0,61.0,29.81,NNW,330,4.0,6.0,67,-99.99,,,-99.99,,2013-06-29 06:22:00,
2013-06-29 01:33:00,73.0,60.0,29.81,NW,320,3.0,7.0,65,-99.99,,,-99.99,,2013-06-29 06:33:00,
2013-06-29 01:43:00,73.0,60.0,29.81,NW,310,4.0,6.0,65,-99.99,,,-99.99,,2013-06-29 06:43:00,
2013-06-29 02:02:00,73.0,60.0,29.81,NW,315,3.0,6.0,65,-99.99,,,-99.99,,2013-06-29 07:02:00,
2013-06-29 02:12:00,73.0,60.0,29.81,NW,310,2.0,6.0,64,-99.99,,,-99.99,,2013-06-29 07:12:00,
2013-06-29 02:22:00,73.0,60.0,29.81,NW,310,2.0,6.0,64,-99.99,,,-99.99,,2013-06-29 07:22:00,
2013-06-29 02:33:00,72.0,60.0,29.81,NW,305,3.0,6.0,65,-99.99,,,-99.99,,2013-06-29 07:33:00,
2013-06-29 02:43:00,72.0,60.0,29.81,WNW,290,3.0,6.0,66,-99.99,,,-99.99,,2013-06-29 07:43:00,
2013-06-29 03:01:00,71.0,60.0,29.81,West,275,3.0,5.0,67,-99.99,,,-99.99,,2013-06-29 08:01:00,
2013-06-29 03:12:00,71.0,60.0,29.81,WNW,285,4.0,6.0,68,-99.99,,,-99.99,,2013-06-29 08:12:00,
2013-06-29 03:22:00,71.0,60.0,29.81,WNW,285,4.0,6.0,68,-99.99,,,-99.99,,2013-06-29 08:22:00,
2013-06-29 03:33:00,71.0,60.0,29.81,NW,305,3.0,7.0,69,-99.99,,,-99.99,,2013-06-29 08:33:00,
2013-06-29 03:43:00,71.0,60.0,29.81,WNW,295,3.0,7.0,70,-99.99,,,-99.99,,2013-06-29 08:43:00,
2013-06-29 04:02:00,71.0,60.0,29.80,NW,315,4.0,9.0,70,-99.99,,,-99.99,,2013-06-29 09:02:00,
2013-06-29 04:12:00,71.0,60.0,29.80,NW,315,5.0,8.0,70,-99.99,,,-99.99,,2013-06-29 09:12:00,
2013-06-29 04:22:00,71.0,60.0,29.80,NW,315,5.0,8.0,70,-99.99,,,-99.99,,2013-06-29 09:22:00,
2013-06-29 04:33:00,70.0,60.0,29.80,NW,325,4.0,7.0,70,-99.99,,,-99.99,,2013-06-29 09:33:00,
2013-06-29 04:42:00,70.0,60.0,29.80,NW,315,4.0,6.0,71,-99.99,,,-99.99,,2013-06-29 09:42:00,
2013-06-29 05:01:00,69.0,60.0,29.81,NW,310,4.0,7.0,72,-99.99,,,-99.99,,2013-06-29 10:01:00,
2013-06-29 05:11:00,69.0,60.0,29.81,NW,325,4.0,7.0,72,-99.99,,,-99.99,,2013-06-29 10:11:00,
2013-06-29 05:33:00,69.0,60.0,29.81,WNW,295,3.0,6.0,73,-99.99,,,-99.99,,2013-06-29 10:33:00,
2013-06-29 05:43:00,69.0,60.0,29.81,WNW,295,3.0,6.0,73,-99.99,,,-99.99,,2013-06-29 10:43:00,
2013-06-29 06:02:00,69.0,60.0,29.81,NW,320,4.0,7.0,73,-99.99,,,-99.99,,2013-06-29 11:02:00,
2013-06-29 06:11:00,68.0,59.0,29.81,NW,315,4.0,7.0,73,-99.99,,,-99.99,,2013-06-29 11:11:00,
2013-06-29 06:33:00,68.0,59.0,29.81,NW,305,5.0,8.0,74,-99.99,,,-99.99,,2013-06-29 11:33:00,
2013-06-29 06:43:00,68.0,59.0,29.81,NW,305,4.0,6.0,73,-99.99,,,-99.99,,2013-06-29 11:43:00,
2013-06-29 07:02:00,68.0,60.0,29.81,NW,315,5.0,8.0,74,-99.99,,,-99.99,,2013-06-29 12:02:00,
2013-06-29 07:12:00,68.0,60.0,29.82,WNW,300,5.0,8.0,74,-99.99,,,-99.99,,2013-06-29 12:12:00,
2013-06-29 07:22:00,68.0,60.0,29.82,WNW,300,5.0,8.0,74,-99.99,,,-99.99,,2013-06-29 12:22:00,
2013-06-29 07:34:00,69.0,60.0,29.81,NW,320,4.0,8.0,73,-99.99,,,-99.99,,2013-06-29 12:34:00,
2013-06-29 07:43:00,69.0,60.0,29.81,NW,320,5.0,10.0,72,-99.99,,,-99.99,,2013-06-29 12:43:00,
2013-06-29 08:02:00,70.0,60.0,29.81,NNW,330,7.0,10.0,70,-99.99,,,-99.99,,2013-06-29 13:02:00,
2013-06-29 08:11:00,71.0,60.0,29.82,NW,310,6.0,12.0,69,-99.99,,,-99.99,,2013-06-29 13:11:00,
2013-06-29 08:23:00,71.0,60.0,29.82,NW,310,6.0,12.0,69,-99.99,,,-99.99,,2013-06-29 13:23:00,
2013-06-29 08:34:00,72.0,61.0,29.81,NNW,340,7.0,12.0,67,-99.99,,,-99.99,,2013-06-29 13:34:00,
2013-06-29 08:43:00,73.0,60.0,29.82,NNW,345,7.0,13.0,65,-99.99,,,-99.99,,2013-06-29 13:43:00,
2013-06-29 09:02:00,74.0,60.0,29.82,NNW,340,11.0,17.0,62,-99.99,,,-99.99,,2013-06-29 14:02:00,
2013-06-29 09:12:00,75.0,61.0,29.82,NNW,340,10.0,17.0,61,-99.99,,,-99.99,,2013-06-29 14:12:00,
2013-06-29 09:23:00,75.0,61.0,29.82,NNW,340,10.0,17.0,61,-99.99,,,-99.99,,2013-06-29 14:23:00,
2013-06-29 09:34:00,76.0,60.0,29.81,NNW,345,10.0,17.0,58,-99.99,,,-99.99,,2013-06-29 14:34:00,
2013-06-29 09:44:00,76.0,60.0,29.81,North,5,10.0,19.0,58,-99.99,,,-99.99,,2013-06-29 14:44:00,
2013-06-29 10:01:00,78.0,60.0,29.81,North,0,12.0,17.0,55,-99.99,,,-99.99,,2013-06-29 15:01:00,
2013-06-29 10:11:00,78.0,61.0,29.81,NNW,330,14.0,23.0,57,-99.99,,,-99.99,,2013-06-29 15:11:00,
2013-06-29 10:22:00,78.0,61.0,29.81,NNW,330,14.0,23.0,57,-99.99,,,-99.99,,2013-06-29 15:22:00,
2013-06-29 10:33:00,78.0,60.0,29.81,North,355,14.0,24.0,54,-99.99,,,-99.99,,2013-06-29 15:33:00,
2013-06-29 10:42:00,79.0,62.0,29.80,North,0,13.0,23.0,55,-99.99,,,-99.99,,2013-06-29 15:42:00,
2013-06-29 11:02:00,81.0,61.0,29.80,North,0,12.0,20.0,51,-99.99,,,-99.99,,2013-06-29 16:02:00,
2013-06-29 11:12:00,81.0,60.0,29.79,NNE,15,14.0,24.0,49,-99.99,,,-99.99,,2013-06-29 16:12:00,
2013-06-29 11:22:00,81.0,60.0,29.79,NNE,15,14.0,24.0,49,-99.99,,,-99.99,,2013-06-29 16:22:00,
2013-06-29 11:33:00,81.0,60.0,29.79,North,350,17.0,28.0,49,-99.99,,,-99.99,,2013-06-29 16:33:00,
2013-06-29 11:43:00,81.0,60.0,29.79,North,0,17.0,26.0,50,-99.99,,,-99.99,,2013-06-29 16:43:00,
2013-06-29 12:01:00,82.0,61.0,29.79,NW,325,13.0,28.0,49,-99.99,,,-99.99,,2013-06-29 17:01:00,
2013-06-29 12:12:00,81.0,59.0,29.79,North,355,21.0,29.0,47,-99.99,,,-99.99,,2013-06-29 17:12:00,
2013-06-29 12:23:00,81.0,59.0,29.79,North,355,21.0,29.0,47,-99.99,,,-99.99,,2013-06-29 17:23:00,
2013-06-29 12:34:00,82.0,60.0,29.79,NNW,330,15.0,30.0,47,-99.99,,,-99.99,,2013-06-29 17:34:00,
2013-06-29 12:42:00,82.0,59.0,29.79,North,355,18.0,28.0,47,-99.99,,,-99.99,,2013-06-29 17:42:00,
2013-06-29 13:01:00,84.0,58.0,29.79,NNW,345,12.0,35.0,42,-99.99,,,-99.99,,2013-06-29 18:01:00,
2013-06-29 13:12:00,83.0,57.0,29.79,NNW,345,13.0,26.0,42,-99.99,,,-99.99,,2013-06-29 18:12:00,
2013-06-29 13:22:00,83.0,57.0,29.79,NNW,345,13.0,26.0,42,-99.99,,,-99.99,,2013-06-29 18:22:00,
2013-06-29 13:34:00,83.0,58.0,29.79,NNW,330,14.0,27.0,42,-99.99,,,-99.99,,2013-06-29 18:34:00,
2013-06-29 13:43:00,83.0,57.0,29.79,North,0,19.0,29.0,41,-99.99,,,-99.99,,2013-06-29 18:43:00,
2013-06-29 14:01:00,83.0,56.0,29.79,North,350,21.0,30.0,39,-99.99,,,-99.99,,2013-06-29 19:01:00,
2013-06-29 14:12:00,84.0,58.0,29.78,North,0,14.0,30.0,42,-99.99,,,-99.99,,2013-06-29 19:12:00,
2013-06-29 14:22:00,84.0,58.0,29.78,North,0,14.0,30.0,42,-99.99,,,-99.99,,2013-06-29 19:22:00,
2013-06-29 14:34:00,84.0,57.0,29.78,NW,325,14.0,25.0,40,-99.99,,,-99.99,,2013-06-29 19:34:00,
2013-06-29 14:43:00,84.0,55.0,29.77,North,0,18.0,29.0,37,-99.99,,,-99.99,,2013-06-29 19:43:00,
2013-06-29 15:02:00,85.0,57.0,29.77,NNW,335,12.0,27.0,38,-99.99,,,-99.99,,2013-06-29 20:02:00,
2013-06-29 15:12:00,84.0,56.0,29.77,North,0,19.0,28.0,39,-99.99,,,-99.99,,2013-06-29 20:12:00,
2013-06-29 15:33:00,85.0,57.0,29.77,North,0,19.0,26.0,39,-99.99,,,-99.99,,2013-06-29 20:33:00,
2013-06-29 15:43:00,85.0,57.0,29.76,NNW,335,14.0,24.0,38,-99.99,,,-99.99,,2013-06-29 20:43:00,
2013-06-29 15:52:00,85.0,56.0,29.76,NNW,330,17.0,25.0,37,-99.99,,,-99.99,,2013-06-29 20:52:00,
2013-06-29 16:02:00,85.0,56.0,29.76,NNW,330,17.0,25.0,37,-99.99,,,-99.99,,2013-06-29 21:02:00,
2013-06-29 16:11:00,85.0,55.0,29.76,NNW,335,21.0,29.0,36,-99.99,,,-99.99,,2013-06-29 21:11:00,
2013-06-29 16:22:00,85.0,55.0,29.76,NNW,335,21.0,29.0,36,-99.99,,,-99.99,,2013-06-29 21:22:00,
2013-06-29 16:32:00,84.0,55.0,29.75,North,350,17.0,26.0,38,-99.99,,,-99.99,,2013-06-29 21:32:00,
2013-06-29 16:42:00,85.0,55.0,29.75,North,0,19.0,27.0,36,-99.99,,,-99.99,,2013-06-29 21:42:00,
2013-06-29 17:01:00,85.0,56.0,29.75,North,350,14.0,29.0,37,-99.99,,,-99.99,,2013-06-29 22:01:00,
2013-06-29 17:11:00,84.0,54.0,29.75,North,0,19.0,29.0,36,-99.99,,,-99.99,,2013-06-29 22:11:00,
2013-06-29 17:21:00,84.0,54.0,29.75,North,0,19.0,29.0,36,-99.99,,,-99.99,,2013-06-29 22:21:00,
2013-06-29 17:33:00,83.0,54.0,29.75,North,355,18.0,29.0,37,-99.99,,,-99.99,,2013-06-29 22:33:00,
2013-06-29 17:43:00,83.0,55.0,29.74,North,350,18.0,27.0,38,-99.99,,,-99.99,,2013-06-29 22:43:00,
2013-06-29 18:02:00,84.0,56.0,29.75,NNW,330,17.0,25.0,39,-99.99,,,-99.99,,2013-06-29 23:02:00,
2013-06-29 18:12:00,84.0,57.0,29.75,North,0,15.0,23.0,40,-99.99,,,-99.99,,2013-06-29 23:12:00,
2013-06-29 18:23:00,84.0,57.0,29.75,North,0,15.0,23.0,40,-99.99,,,-99.99,,2013-06-29 23:23:00,
2013-06-29 18:34:00,83.0,55.0,29.75,North,0,17.0,26.0,39,-99.99,,,-99.99,,2013-06-29 23:34:00,
2013-06-29 18:43:00,83.0,58.0,29.74,North,355,11.0,24.0,43,-99.99,,,-99.99,,2013-06-29 23:43:00,
2013-06-29 19:02:00,83.0,57.0,29.74,North,355,14.0,22.0,42,-99.99,,,-99.99,,2013-06-30 00:02:00,
2013-06-29 19:12:00,82.0,56.0,29.74,NNW,345,17.0,26.0,42,-99.99,,,-99.99,,2013-06-30 00:12:00,
2013-06-29 19:33:00,72.0,61.0,29.79,North,5,27.0,44.0,69,-99.99,,,-99.99,,2013-06-30 00:33:00,
2013-06-29 19:43:00,72.0,61.0,29.79,North,5,27.0,44.0,69,-99.99,,,-99.99,,2013-06-30 00:43:00,
2013-06-29 20:01:00,71.0,65.0,29.77,North,0,4.0,10.0,83,-99.99,,,-99.99,,2013-06-30 01:01:00,
2013-06-29 20:11:00,71.0,66.0,29.77,NW,315,3.0,7.0,83,-99.99,,,-99.99,,2013-06-30 01:11:00,
2013-06-29 20:33:00,71.0,64.0,29.77,North,0,6.0,9.0,78,-99.99,,,-99.99,,2013-06-30 01:33:00,
2013-06-29 20:44:00,71.0,64.0,29.77,North,355,5.0,10.0,78,-99.99,,,-99.99,,2013-06-30 01:44:00,
2013-06-29 21:02:00,71.0,63.0,29.77,NNW,340,7.0,10.0,77,-99.99,,,-99.99,,2013-06-30 02:02:00,
2013-06-29 21:11:00,71.0,64.0,29.77,NNW,340,5.0,9.0,78,-99.99,,,-99.99,,2013-06-30 02:11:00,
2013-06-29 21:23:00,71.0,64.0,29.77,NNW,340,5.0,9.0,78,-99.99,,,-99.99,,2013-06-30 02:23:00,
2013-06-29 21:34:00,71.0,63.0,29.77,NNW,340,9.0,12.0,78,-99.99,,,-99.99,,2013-06-30 02:34:00,
2013-06-29 21:43:00,71.0,63.0,29.77,NNW,330,8.0,13.0,78,-99.99,,,-99.99,,2013-06-30 02:43:00,
2013-06-29 21:53:00,70.0,63.0,29.77,North,355,7.0,12.0,79,-99.99,,,-99.99,,2013-06-30 02:53:00,
2013-06-29 22:01:00,70.0,63.0,29.77,North,355,7.0,12.0,79,-99.99,,,-99.99,,2013-06-30 03:01:00,
2013-06-29 22:12:00,70.0,63.0,29.78,North,355,9.0,13.0,79,-99.99,,,-99.99,,2013-06-30 03:12:00,
2013-06-29 22:23:00,70.0,63.0,29.78,North,355,9.0,13.0,79,-99.99,,,-99.99,,2013-06-30 03:23:00,
2013-06-29 22:33:00,70.0,63.0,29.79,North,5,10.0,15.0,79,-99.99,,,-99.99,,2013-06-30 03:33:00,
2013-06-29 22:43:00,70.0,63.0,29.79,North,5,9.0,14.0,79,-99.99,,,-99.99,,2013-06-30 03:43:00,
2013-06-29 23:01:00,69.0,63.0,29.80,NNE,15,6.0,10.0,81,-99.99,,,-99.99,,2013-06-30 04:01:00,
2013-06-29 23:12:00,69.0,63.0,29.80,North,5,7.0,9.0,81,-99.99,,,-99.99,,2013-06-30 04:12:00,
2013-06-29 23:22:00,69.0,63.0,29.80,North,5,7.0,9.0,81,-99.99,,,-99.99,,2013-06-30 04:22:00,
2013-06-29 23:33:00,68.0,62.0,29.80,North,0,8.0,11.0,80,-99.99,,,-99.99,,2013-06-30 04:33:00,
2013-06-29 23:43:00,69.0,62.0,29.80,North,5,7.0,13.0,80,-99.99,,,-99.99,,2013-06-30 04:43:00,